Back to catalog

MINOTAUR 4 R/B

AliveLEO
NORAD 63598·ROCKET BODY·🇺🇸 United States

Launched Apr 16, 2025 from Vandenberg Space Force Base

Loading…

Next Passes (next 24 hours)

TLE

AgingSource: Mike McCants

Epoch: Sep 10, 2026, 03:48 UTC

1 63598U 25077C   26253.15844306 0.00000000  00000-0  00000-0 0    04
2 63598  63.3953 358.2237 0032791 352.7982   7.2018 13.39148365    01

Track MINOTAUR 4 R/B in real time with AllMySat

Download on the App Store